Location: Dannhausen
(51.8650°N, 10.1026°E)
Time: 01:29:01
(UTC+00:00)

Cosmos 1500 Rocket - Pass Details

Date: 09 April 2020
Orbit: 604 x 630 km, 82.5° (Epoch: 30 May)

Event Time Altitude Azimuth Distance (km) Brightness Sun altitude
Rises 20:55:52 0° 354° (N) 2,878 7.9 -22.6°
Reaches altitude 10° 20:58:13 10° 3° (N) 1,971 6.8 -22.8°
Enters shadow 21:01:57 37° 60° (ENE) 953 4.4 -23.1°
